Weather History for Racine, WI

Change the Weather History Date:

Thursday, March 22, 2012

  Actual Average Record
Temperature  
Mean Temperature 60 °F -  
Max Temperature 73 °F 41 °F 73 °F (2012)
Min Temperature 50 °F 28 °F 11 °F (1965)
Degree Days  
Heating Degree Days 4    
Growing Degree Days 10 (Base 50)    
Moisture  
Dew Point 51 °F    
Average Humidity 78    
Maximum Humidity 97    
Minimum Humidity 53    
Precipitation  
Precipitation 0.04 in - - ()
Sea Level Pressure  
Sea Level Pressure 30.08 in    
Wind  
Wind Speed 4 mph (NNE)    
Max Wind Speed 15 mph    
Max Gust Speed 20 mph    
Visibility 6 miles    
Events Rain , Thunderstorm    
Averages and records for this station are not official NWS values.
T = Trace of Precipitation, MM = Missing Value Source: NWS Daily Summary

Daily Weather History Graph

Daily Weather History Graph

Search for Another Location

Airport:

Trip Planner

Search our weather history database for the weather conditions in past years. The results will help you decide how hot, cold, wet, or windy it might be!

Date:

Astronomy

Mar. 22, 2012 Rise Set
Actual Time 6:50 AM CDT 7:06 PM CDT
Civil Twilight 6:21 AM CDT 7:34 PM CDT
Nautical Twilight 5:48 AM CDT 8:07 PM CDT
Astronomical Twilight 5:14 AM CDT 8:42 PM CDT
Moon 6:28 AM CDT (3/22) 7:32 PM CDT (3/22)
Length of Visible Light 13h 12m
Length of Day
12h 16m
Waxing Crescent, 0% of the Moon is Illuminated
Mar 22
Waxing Crescent
Mar 30
First Quarter
Apr 6
Full
Apr 13
Last Quarter
Apr 21
New

Hourly Weather History & Observations

Time (CDT) Temp. Dew Point Humidity Pressure Visibility Wind Dir Wind Speed Gust Speed Precip Events Conditions
12:53 AM 59.0 °F 50.0 °F 72% 30.07 in 9.0 mi South 5.8 mph - N/A   Partly Cloudy
1:53 AM 60.1 °F 51.1 °F 72% 30.07 in 10.0 mi South 3.5 mph - N/A   Scattered Clouds
2:53 AM 61.0 °F 52.0 °F 72% 30.07 in 10.0 mi South 4.6 mph - N/A   Clear
3:53 AM 61.0 °F 51.1 °F 70% 30.06 in 9.0 mi Calm Calm - N/A   Partly Cloudy
4:53 AM 59.0 °F 51.1 °F 75% 30.07 in 9.0 mi Calm Calm - N/A   Clear
5:53 AM 55.9 °F 50.0 °F 80% 30.09 in 8.0 mi Calm Calm - N/A   Clear
6:53 AM 55.0 °F 51.1 °F 86% 30.09 in 6.0 mi Calm Calm - N/A   Clear
7:53 AM 57.0 °F 51.1 °F 81% 30.11 in 5.0 mi Calm Calm - N/A   Haze
8:53 AM 64.0 °F 52.0 °F 65% 30.11 in 7.0 mi Calm Calm - N/A   Clear
9:53 AM 71.1 °F 53.1 °F 53% 30.11 in 10.0 mi SSE 3.5 mph - N/A   Clear
10:53 AM 70.0 °F 53.1 °F 55% 30.11 in 9.0 mi SE 6.9 mph - N/A   Clear
11:53 AM 70.0 °F 54.0 °F 57% 30.10 in 7.0 mi South 8.1 mph - N/A   Clear
12:53 PM 62.1 °F 50.0 °F 65% 30.10 in 5.0 mi NE 8.1 mph - N/A   Haze
1:53 PM 61.0 °F 50.0 °F 67% 30.10 in 5.0 mi NE 6.9 mph - N/A   Haze
2:53 PM 59.0 °F 48.9 °F 69% 30.08 in 5.0 mi NE 8.1 mph - N/A   Haze
3:53 PM 57.0 °F 48.0 °F 72% 30.06 in 5.0 mi NNE 6.9 mph - N/A   Haze
4:53 PM 50.0 °F 45.0 °F 83% 30.06 in 4.0 mi North 5.8 mph - N/A   Haze
5:26 PM 57.2 °F 48.2 °F 72% 30.07 in 1.8 mi WNW 5.8 mph - 0.03 in Rain Heavy Rain
5:36 PM 55.4 °F 51.8 °F 88% 30.06 in 3.0 mi WNW 4.6 mph - 0.03 in Rain Light Rain
5:53 PM 57.0 °F 53.1 °F 87% 30.06 in 4.0 mi Calm Calm - 0.04 in   Overcast
6:46 PM 57.2 °F 55.4 °F 94% 30.05 in 2.5 mi North 3.5 mph - 0.00 in   Scattered Clouds
6:53 PM 55.9 °F 55.0 °F 97% 30.06 in 2.0 mi North 3.5 mph - 0.00 in   Scattered Clouds
7:13 PM 53.6 °F 51.8 °F 94% 30.06 in 4.0 mi NE 3.5 mph - N/A   Scattered Clouds
7:53 PM 52.0 °F 50.0 °F 93% 30.06 in 4.0 mi North 3.5 mph - N/A   Clear
8:53 PM 52.0 °F 48.0 °F 86% 30.06 in 5.0 mi North 5.8 mph - N/A   Scattered Clouds
9:53 PM 51.1 °F 46.9 °F 86% 30.10 in 5.0 mi SSW 15.0 mph 19.6 mph N/A Thunderstorm Overcast
10:20 PM 53.6 °F 50.0 °F 88% 30.09 in 4.0 mi NE 6.9 mph - 0.00 in Rain Light Rain
10:53 PM 52.0 °F 50.0 °F 93% 30.09 in 4.0 mi North 4.6 mph - 0.00 in   Overcast
11:53 PM 52.0 °F 50.0 °F 93% 30.06 in 4.0 mi Calm Calm - N/A   Scattered Clouds